Location: Bay Ridge
(40.6340°N, 74.0146°W)
Time: 13:00:42
(UTC+00:00)

Abrixas rocket - Pass Details

Date: 15 November 2019
Orbit: 358 x 366 km, 48.4° (Epoch: 07 December)

Event Time Altitude Azimuth Distance (km) Brightness Sun altitude
Rises 11:07:31 0° 237° (WSW) 2,173 5.5 -7.0°
Reaches altitude 10° 11:09:32 10° 236° (SW) 1,333 4.4 -6.6°
Maximum altitude 11:12:30 82° 150° (SSE) 367 2.0 -6.1°
Drops below altitude 10° 11:15:31 10° 61° (ENE) 1,345 5.5 -5.6°
Sets 11:17:34 0° 61° (ENE) 2,196 6.6 -5.2°
